Regional Weather Roundup
Issued by NWS

Home | Current Version | Previous Version | Text Only | Print | Product List | Glossary On
Versions: 1 2 3 4 5 6 7 8 9 10 11 12 13 14 15 16 17 18 19 20 21 22 23 24 25 26 27 28 29 30 31 32 33 34 35 36 37 38 39 40 41 42 43 44 45 46 47 48 49 50
000
ASUS45 KBOU 260707
RWRCO

WEATHER ROUNDUP FOR COLORADO
NATIONAL WEATHER SERVICE DENVER/BOULDER CO
100 AM MDT THU MAR 26 2015

NOTE: "FAIR" INDICATES FEW OR NO CLOUDS BELOW 12000 FEET WITH NO
SIGNIFICANT WEATHER AND/OR OBSTRUCTIONS TO VISIBILITY.

COZ001>005-013-030-031-260800-
...NORTHWEST COLORADO...

CITY           SKY/WX    TMP DP  RH WIND       PRES   REMARKS
CRAIG          FAIR      31  20  63 W7        30.34S WCI  24
HAYDEN         FAIR      27  21  80 CALM      30.33S
MEEKER         FAIR      29  21  72 NE8       30.36R WCI  21
MOUNT WERNER   NOT AVBL
STEAMBOAT SPGS FAIR      26  22  85 E5        30.32S WCI  20
WALDEN         FAIR      19  16  86 SE5       30.27F WCI  13
$$

COZ006>008-011-260800-
...WEST CENTRAL VALLEYS...

CITY           SKY/WX    TMP DP  RH WIND       PRES   REMARKS
GRAND JUNCTION FAIR      34  16  47 NE3       30.32R
MONTROSE       FAIR      33  17  51 S7        30.36R WCI  27
EAGLE          FAIR      27  19  74 E5        30.38R WCI  21
RIFLE          FAIR      28  18  66 E3        30.36R
DELTA          FAIR      37  19  49 NE3       30.35R
NUCLA          FAIR      36  12  38 E5        30.37S
$$

COZ017>023-064>068-260800-
...SOUTHWEST COLORADO...

CITY           SKY/WX    TMP DP  RH WIND       PRES   REMARKS
DURANGO        FAIR      29  14  53 N3        30.24R
CORTEZ         FAIR      38  12  34 NW9       30.30R
PAGOSA SPRINGS FAIR      32   9  38 N7        30.27S WCI  26
TELLURIDE      FAIR      27  12  55 CALM      30.36S
WOLF CREEK PAS FAIR      14   3  62 NE12      30.33R WCI   0
$$

COZ009-010-012-014-032>034-037-058>063-260800-
...CENTRAL COLORADO...

CITY           SKY/WX    TMP DP  RH WIND       PRES   REMARKS
ASPEN          FAIR      24  15  68 SW7       30.35R WCI  16
BUENA VISTA    FAIR      28  11  49 NW7       30.28F WCI  20
COPPER MTN     MOCLDY    18   9  68 W21G29    30.29F WCI   1
BERTHOUD PASS  LGT SNOW   9   1  72 MISG      30.21F
COTTONWOOD PAS FAIR      28   7  40 W7G20     30.27F WCI  21
GUNNISON       FAIR      27  14  59 CALM      30.35S
KREMMLING      CLOUDY    25  21  86 CALM      30.34R
LEADVILLE      FAIR      10   5  80 E8        30.30S WCI  -2
SALIDA         FAIR      26  22  86 W3        30.36F
SUNLIGHT       FAIR      21  14  73 CALM      30.39S
WILKERSON PASS FAIR      16   9  73 W14G26    30.25F WCI   1
$$

COZ069>075-260800-
...SAN LUIS VALLEY/SANGRE DE CRISTO MOUNTAINS...

CITY           SKY/WX    TMP DP  RH WIND       PRES   REMARKS
ALAMOSA        FAIR      21  14  74 SW5       30.28S WCI  15
LA VETA PASS   FAIR      21  10  63 W6        30.27F WCI  14
SAGUACHE       FAIR      30  12  47 NW12      30.29S WCI  21
$$

COZ035-036-038>040-260800-
...NORTHERN COLORADO FRONT RANGE...

CITY           SKY/WX    TMP DP  RH WIND       PRES   REMARKS
DENVER INTL AP FAIR      31  28  89 S9        30.21F WCI  23
DMNS CITY PARK   N/A     34  26  73 S6G12     30.21F WCI  29
AURORA         PTCLDY    31  27  86 S12       30.22F WCI  21
FRONT RANGE AP FAIR      34  32  93 S8        30.22F WCI  27
ERIE MUNI ARPT FAIR      32  31  96 CALM      30.21F
BOULDER MUN AP FAIR      34  30  86 CALM      30.20F
CENTENNIAL     FAIR      30  25  81 S8        30.22F WCI  22
BROOMFIELD     FAIR      34  30  86 SW6       30.21F WCI  29
FORT COLLINS   FAIR      30  28  93 S7        30.22F WCI  23
LONGMONT       FAIR      32  30  92 CALM      30.23F
$$

COZ041-046-047-076>085-087-088-260800-
...PIKES PEAK/PALMER DIVIDE AND SOUTHERN FOOTHILLS...

CITY           SKY/WX    TMP DP  RH WIND       PRES   REMARKS
COLO. SPRINGS  FAIR      27  21  78 N5        30.25F WCI  22
A. F. ACADEMY  FAIR      20  17  88 N9        30.24F WCI   9
ELLICOTT       FAIR     N/A N/A N/A CALM      30.24F
FALCON         FAIR      26  21  82 W7        30.25F WCI  18
FORT CARSON    FAIR      28  22  79 NW3       30.24F
LIMON          FAIR      28  26  92 W7        30.24F WCI  21
MONUMENT HILL  FAIR      21  18  86 S6        30.23S WCI  14
TRINIDAD       FAIR      29  25  85 SW14      30.28F WCI  18
$$

COZ042>045-048>051-090-091-260800-
...NORTHEAST COLORADO...

CITY           SKY/WX    TMP DP  RH WIND       PRES   REMARKS
GREELEY ARPT   FAIR      27  21  80 N7        30.22S WCI  19
AKRON          FAIR      31  29  92 W8        30.22F WCI  23
BURLINGTON     FAIR      29  25  85 W8        30.24F WCI  21
WRAY           FAIR      34  30  86 W3        30.23F
STERLING       MOCLDY    32  30  93 CALM      30.22F
HOLYOKE        FAIR      32  27  80 S3        30.22F
FORT MORGAN    MOCLDY    34  31  91 W7        30.23F WCI  28
$$

COZ086-089-092>099-260800-
...SOUTHEAST COLORADO...

CITY           SKY/WX    TMP DP  RH WIND       PRES   REMARKS
PUEBLO         FAIR      29  28  96 CALM      30.27F
LA JUNTA       FAIR      33  30  88 W13       30.27F WCI  24
LAMAR          FAIR      30  29  96 SW6       30.27S WCI  24
SPRINGFIELD      N/A     29  28  96 NW9       30.26S WCI  20
$$



USA.gov is the U.S. government's official web portal to all federal, state and local government web resources and services.